This demonstration page uses our WeatherBlox Daily Observations layout. Learn more.

38.88101, -77.10428

Hourly Observations for August 2, 2020

Temp ( °F °C ) Dew Point ( °F °C ) Humidity (%) Winds ( mph kmh ) Pressure ( in mb ) Visibility ( mi km ) Precip ( " mm )
12:15 am 00:15 Mostly Cloudy 80 26.7 76 24.4 87 87 SSE 12 19 29.91 1013 10 16.0934 0 0
12:52 am 00:52 Cloudy 80 26.7 76 24.4 87 87 SSE 10 17 29.9 1013 10 16.0934 0 0
1:08 am 01:08 Mostly Cloudy 80 26.7 76 24.4 87 87 SSE 9 15 29.9 1012 10 16.0934 0 0
1:52 am 01:52 Mostly Cloudy 80 26.7 76 24.4 87 87 S 9 15 29.9 1013 10 16.0934 0 0
2:22 am 02:22 Mostly Cloudy 80 26.7 76 24.4 87 87 S 10 17 29.9 1012 10 16.0934 0 0
2:52 am 02:52 Cloudy 80 26.7 76 24.4 87 87 S 14 22 29.89 1012 10 16.0934 0 0
3:13 am 03:13 Cloudy 80 26.7 76 24.4 87 87 SSE 13 20 29.88 1012 10 16.0934 0 0
3:52 am 03:52 Mostly Cloudy 79 26.1 75 23.9 88 88 SSE 14 22 29.87 1012 10 16.0934 0 0
4:04 am 04:04 Mostly Cloudy 79 26.1 75 23.9 88 88 SSE 13 20 29.87 1011 10 16.0934 0 0
4:52 am 04:52 Cloudy 79 26.1 75 23.9 88 88 S 12 19 29.87 1012 10 16.0934 0 0
5:52 am 05:52 Cloudy 79 26.1 75 23.9 88 88 S 10 17 29.88 1012 10 16.0934 0 0
6:52 am 06:52 Cloudy 79 26.1 75 23.9 88 88 SSW 10 17 29.89 1012 10 16.0934 0 0
7:52 am 07:52 Cloudy 79 26.1 75 23.9 88 88 S 8 13 29.9 1013 10 16.0934 0 0
8:40 am 08:40 Cloudy 80 26.7 74 23.3 82 82 SW 9 15 29.91 1013 10 16.0934 0 0
8:52 am 08:52 Cloudy 81 27.2 74 23.3 79 79 SW 13 20 29.91 1013 10 16.0934 0 0
9:52 am 09:52 Mostly Cloudy 82 27.8 76 24.4 82 82 S 10 17 29.91 1013 10 16.0934 0 0
10:52 am 10:52 Cloudy 83 28.3 76 24.4 79 79 S 14 22 29.92 1013 10 16.0934 0 0
11:52 am 11:52 Mostly Cloudy 85 29.4 76 24.4 75 75 S 17 28 29.91 1013 10 16.0934 0 0
12:52 pm 12:52 Mostly Cloudy 85 29.4 76 24.4 75 75 S 17 28 29.9 1012 10 16.0934 0 0
1:45 pm 13:45 Mostly Cloudy 88 31.1 76 24.4 68 68 S 15 24 29.89 1012 10 16.0934 0 0
1:52 pm 13:52 Mostly Cloudy 89 31.7 75 23.9 63 63 S 12 19 29.89 1012 10 16.0934 0 0
2:52 pm 14:52 Mostly Cloudy 91 32.8 75 23.9 59 59 S 15 24 29.88 1012 10 16.0934 0 0
3:52 pm 15:52 Mostly Cloudy 91 32.8 72 22.2 54 54 SSW 15 24 29.86 1011 10 16.0934 0 0
4:52 pm 16:52 Mostly Cloudy 91 32.8 71 21.7 52 52 SSW 17 28 29.86 1011 10 16.0934 0 0
5:09 pm 17:09 Mostly Cloudy with Nearby Thunderstorms 91 32.8 72 22.2 54 54 SSW 21 33 29.86 1011 10 16.0934 0 0
5:21 pm 17:21 Mostly Cloudy with Nearby Thunderstorms 87 30.6 74 23.3 65 65 SW 31 50 29.89 1012 4 6.43736 0.001 0.001
5:23 pm 17:23 Mostly Cloudy with Heavy Rain 83 28.3 73 22.8 72 72 SW 22 35 29.89 1012 1.75 2.816345 0.02 0.508
5:32 pm 17:32 Mostly Cloudy with Light Rain 84 28.9 72 22.2 67 67 SW 8 13 29.88 1012 3 4.82802 0.07 1.778
5:36 pm 17:36 Mostly Cloudy 85 29.4 74 23.3 70 70 SW 8 13 29.87 1011 10 16.0934 0.07 1.778
5:52 pm 17:52 Mostly Cloudy 85 29.4 76 24.4 75 75 SSW 9 15 29.88 1012 10 16.0934 0.07 1.778
6:52 pm 18:52 Mostly Cloudy 88 31.1 73 22.8 61 61 SSW 15 24 29.87 1012 10 16.0934 0 0
7:52 pm 19:52 Partly Cloudy 86 30 75 23.9 70 70 S 13 20 29.88 1012 10 16.0934 0 0
8:52 pm 20:52 Partly Cloudy 86 30 73 22.8 65 65 SSW 12 19 29.9 1013 10 16.0934 0 0
9:52 pm 21:52 Partly Cloudy 84 28.9 76 24.4 77 77 S 10 17 29.92 1013 10 16.0934 0 0
10:52 pm 22:52 Mostly Cloudy 83 28.3 75 23.9 77 77 S 12 19 29.94 1014 10 16.0934 0 0
11:52 pm 23:52 Mostly Cloudy 83 28.3 72 22.2 70 70 SW 10 17 29.94 1014 10 16.0934 0 0

Powered by AerisWeather